Find Starlink 3997

NORAD ID: 52609 Int'l Des: 2022-052 Owner: SPXS Country: US Constellation: starlink operational
LEOCIRCULAR

实时位置

正在加载3D地球...

关于 Starlink 3997

正在加载描述...

即将过境

Passes for default location (London). Set your location on the main map for personalized predictions.

高度历史

Loading altitude history...

两行轨道根数

1 52609U 22052M 26133.88019024 -.00000142 00000-0 91684-5 0 9991
2 52609 53.2180 346.4226 0001241 87.0040 273.1095 15.08840435220703
Epoch: May 13, 2026 • Age: 17 hours

当前状态

高度 540.1 km
速度 7.59 km/s
星下点 4.75°N, 80.6°E
发射日期 May 14, 2022
运行时间 3.9 years
类型 internet

技术详情

分类 Payload
质量 297.00 kg
干质量 275.00 kg
总质量 297.00 kg
长度 0.20 m
直径 2.80 m
跨度 9.00 m
形状 Box + pan
制造商 SPXS
平台类型 Starlink
阶段状态 In Orbit
所有者/国家 SPXS/US

Most Searched